Weather in Arzamastsevo

Russia / Udmurt Republic     56°08′49″N   53°42′00″E
temp.,
°C
wind,
m/s
gust,
m/s
humid.,
%
clouds,
%
prec.,
mm/h
press.,
hPa
HPBL,
m
17 january, mon
mon1701:00−11w51195100 0.1 998344
04:00−14w5119671 0.1 1001205
07:00−18wsw389942 0.0 1003100
10:00−18sw41399100 0.0 1004196
13:00−10ssw61592100 0.1 1003503
16:00−9ssw7149296 0.3 1003528
19:00−9ssw81689100 0.0 1003520
22:00−10ssw7168971 0.0 1004478
18 january, tue
tue1801:00−10ssw7169194 0.0 1005497
04:00−10ssw71690100 0.0 1006519
07:00−9ssw71593100 0.1 1006619
10:00−8s71594100 0.5 1007617
13:00−6s71594100 0.7 1008627
16:00−4s71494100 1.3 1008611
19:00−4ssw71594100 0.3 1010603
22:00−4ssw71494100 0.6 1011583
19 january, wed
wed1901:00−3ssw61494100 0.2 1013624
04:00−1ssw61393100 0.4 1014715
07:00−2ssw61292100 0.1 1016643
10:00−3ssw61294100 0.1 1018571
13:00−3ssw61193100 0.1 1019494
16:00−4ssw51094100 0.1 1021349
19:00−5s499595 0.1 1022274
22:00−8s3697100 0.1 1023107
20 january, thu
thu2001:00−8s3696100 0.1 1024116
04:00−10sse239876 0.2 102538
07:00−12sse229983 0.0 102524
10:00−13sse239996 0.1 102638
13:00−10s239698 0.0 102688
16:00−14sse229976 0.1 102710
19:00−16sse2210096 0.0 102710
22:00−17sse22100100 0.1 102710
21 january, fri
fri2101:00−17sse1110097 0.0 10279
04:00−18se1199100 0.1 10289
07:00−18se119995 0.1 102810
10:00−20s1110094 0.1 10309
13:00−16sse229736 0.0 103049
16:00−20sse111005 0.0 10319
19:00−23sse1110016 0.0 10329
22:00−17se119999 0.0 10349